This demonstration page uses our WeatherBlox Daily Observations layout. Learn more.

Left ArrowRight Arrow

Hourly Observations for September 6, 2016

Temp ( °F °C ) Dew Point ( °F °C ) Humidity (%) Winds ( mph kmh ) Pressure ( in mb ) Visibility ( mi km ) Precip ( " mm )
12:15 am 00:15 Clear 73 23 61 16 65 65 N 6 9 30.12 1020 10 16 N/A
12:35 am 00:35 Clear 73 23 61 16 65 65 NW 9 15 30.12 1020 10 16 N/A
12:55 am 00:55 Clear 72 22 61 16 69 69 NW 12 19 30.12 1020 10 16 N/A
1:15 am 01:15 Clear 73 23 61 16 65 65 NW 13 20 30.12 1020 10 16 N/A
1:35 am 01:35 Clear 73 23 61 16 65 65 WNW 5 7 30.12 1020 10 16 N/A
1:55 am 01:55 Clear 73 23 61 16 65 65 NW 12 19 30.09 1019 10 16 N/A
2:15 am 02:15 Clear 73 23 61 16 65 65 NW 13 20 30.09 1019 10 16 N/A
2:35 am 02:35 Clear 73 23 61 16 65 65 NW 17 28 30.09 1019 10 16 N/A
2:55 am 02:55 Clear 73 23 61 16 65 65 NW 14 22 30.09 1019 10 16 N/A
3:15 am 03:15 Clear 73 23 61 16 65 65 NW 12 19 30.09 1019 10 16 N/A
3:35 am 03:35 Clear 72 22 61 16 69 69 NW 10 17 30.09 1019 10 16 N/A
3:55 am 03:55 Clear 72 22 61 16 69 69 WNW 10 17 30.09 1019 10 16 N/A
4:15 am 04:15 Clear 70 21 61 16 73 73 WNW 7 11 30.09 1019 10 16 N/A
4:35 am 04:35 Clear 66 19 61 16 83 83 W 6 9 30.09 1019 10 16 N/A
4:55 am 04:55 Clear 68 20 61 16 78 78 NNW 3 6 30.12 1020 10 16 N/A
5:15 am 05:15 Clear 68 20 61 16 78 78 NW 8 13 30.12 1020 10 16 N/A
5:35 am 05:35 Clear 66 19 61 16 83 83 NW 5 7 30.12 1020 10 16 N/A
5:55 am 05:55 Clear 64 18 61 16 88 88 NNW 7 11 30.12 1020 10 16 N/A
6:15 am 06:15 Clear 64 18 61 16 88 88 WNW 9 15 30.12 1020 10 16 N/A
6:35 am 06:35 Clear 66 19 61 16 83 83 NW 8 13 30.12 1020 10 16 N/A
6:55 am 06:55 Sunny 68 20 61 16 78 78 NW 8 13 30.12 1020 10 16 N/A
7:15 am 07:15 Sunny 68 20 63 17 83 83 NW 7 11 30.12 1020 10 16 N/A
7:35 am 07:35 Sunny 70 21 63 17 78 78 NW 8 13 30.15 1021 10 16 N/A
7:55 am 07:55 Sunny 72 22 63 17 73 73 NW 7 11 30.15 1021 10 16 N/A
8:15 am 08:15 Sunny 73 23 63 17 69 69 undefined N/A 30.15 1021 10 16 N/A
8:35 am 08:35 Sunny 73 23 63 17 69 69 NW 9 15 30.12 1020 10 16 N/A
8:55 am 08:55 Sunny 75 24 63 17 65 65 NW 9 15 30.15 1021 10 16 N/A
9:15 am 09:15 Sunny 77 25 64 18 65 65 NW 10 17 30.15 1021 10 16 N/A
9:35 am 09:35 Sunny 79 26 64 18 61 61 NW 15 24 30.12 1020 10 16 N/A
9:55 am 09:55 Sunny 79 26 64 18 61 61 NW 13 20 30.12 1020 10 16 N/A
10:15 am 10:15 Sunny 81 27 64 18 58 58 NW 17 28 30.12 1020 10 16 N/A
10:35 am 10:35 Sunny 82 28 64 18 55 55 NW 20 31 30.12 1020 10 16 N/A
10:55 am 10:55 Sunny 82 28 64 18 55 55 NNW 16 26 30.12 1020 10 16 N/A
11:15 am 11:15 Sunny 84 29 63 17 48 48 NNW 15 24 30.12 1020 10 16 N/A
11:35 am 11:35 Sunny 84 29 63 17 48 48 NNW 16 26 30.12 1020 10 16 N/A
11:55 am 11:55 Sunny 86 30 63 17 46 46 N 12 19 30.12 1020 10 16 N/A
12:15 pm 12:15 Sunny 86 30 63 17 46 46 NNW 17 28 30.12 1020 10 16 N/A
12:35 pm 12:35 Sunny 86 30 63 17 46 46 N 12 19 30.09 1019 10 16 N/A
12:55 pm 12:55 Sunny 88 31 64 18 46 46 NNW 16 26 30.09 1019 10 16 N/A
1:15 pm 13:15 Sunny 88 31 64 18 46 46 NW 20 31 30.09 1019 10 16 N/A
1:35 pm 13:35 Sunny 90 32 63 17 41 41 NNW 20 31 30.06 1018 10 16 N/A
1:55 pm 13:55 Sunny 90 32 63 17 41 41 NNW 16 26 30.06 1018 10 16 N/A
2:15 pm 14:15 Partly Cloudy 90 32 63 17 41 41 NNW 16 26 30.03 1017 10 16 N/A
2:35 pm 14:35 Partly Cloudy 90 32 63 17 41 41 NNW 14 22 30.03 1017 10 16 N/A
2:55 pm 14:55 Partly Cloudy 91 33 64 18 41 41 NW 18 30 30.03 1017 10 16 N/A
3:15 pm 15:15 Partly Cloudy 91 33 64 18 41 41 NNW 10 17 30.00 1016 10 16 N/A
3:35 pm 15:35 Sunny 91 33 63 17 38 38 NNW 12 19 30.00 1016 10 16 N/A
3:55 pm 15:55 Sunny 91 33 63 17 38 38 NW 16 26 30.00 1016 10 16 N/A
4:15 pm 16:15 Sunny 91 33 63 17 38 38 NNW 17 28 30.00 1016 10 16 N/A
4:35 pm 16:35 Sunny 91 33 63 17 38 38 NNW 16 26 30.00 1016 10 16 N/A
4:55 pm 16:55 Partly Cloudy 91 33 63 17 38 38 NNW 16 26 30.00 1016 10 16 N/A
5:15 pm 17:15 Sunny 91 33 63 17 38 38 NNW 12 19 30.00 1016 10 16 N/A
5:35 pm 17:35 Sunny 91 33 63 17 38 38 NW 13 20 30.00 1016 10 16 N/A
5:55 pm 17:55 Sunny 91 33 63 17 38 38 N 9 15 29.97 1015 10 16 N/A
6:15 pm 18:15 Partly Cloudy 90 32 63 17 41 41 NNW 8 13 30.00 1016 10 16 N/A
6:35 pm 18:35 Partly Cloudy 90 32 63 17 41 41 NNW 6 9 30.00 1016 10 16 N/A
6:55 pm 18:55 Partly Cloudy 88 31 64 18 46 46 N N/A 30.00 1016 10 16 N/A
7:15 pm 19:15 Mostly Cloudy 88 31 64 18 46 46 N N/A 30.00 1016 10 16 N/A
7:35 pm 19:35 Cloudy 86 30 66 19 52 52 N N/A 30.03 1017 10 16 N/A
7:55 pm 19:55 Partly Cloudy 82 28 68 20 62 62 N N/A 30.03 1017 10 16 N/A
8:15 pm 20:15 Mostly Cloudy 81 27 68 20 66 66 N N/A 30.03 1017 10 16 N/A
8:35 pm 20:35 Cloudy 82 28 68 20 62 62 N N/A 30.06 1018 10 16 N/A
8:55 pm 20:55 Cloudy 82 28 66 19 58 58 WNW 3 6 30.06 1018 10 16 N/A
9:15 pm 21:15 Mostly Cloudy 81 27 68 20 66 66 W 7 11 30.06 1018 10 16 N/A
9:35 pm 21:35 Partly Cloudy 79 26 68 20 70 70 WNW 10 17 30.06 1018 10 16 N/A
9:55 pm 21:55 Partly Cloudy 81 27 66 19 62 62 W 10 17 30.06 1018 10 16 N/A
10:15 pm 22:15 Clear 79 26 66 19 65 65 WNW 12 19 30.06 1018 10 16 N/A
10:35 pm 22:35 Partly Cloudy 79 26 66 19 65 65 W 10 17 30.06 1018 10 16 N/A
10:55 pm 22:55 Partly Cloudy 77 25 68 20 74 74 W 5 7 30.06 1018 10 16 N/A
11:15 pm 23:15 Partly Cloudy 77 25 68 20 74 74 W 10 17 30.06 1018 10 16 N/A
11:35 pm 23:35 Partly Cloudy 79 26 68 20 70 70 WNW 13 20 30.06 1018 10 16 N/A
11:55 pm 23:55 Mostly Cloudy 81 27 68 20 66 66 NE 7 11 30.06 1018 10 16 N/A

Powered by AerisWeather